Terug naar catalogus

CZ-2D DEB

ActiefSSO
NORAD 44549·DEBRIS·🇨🇳 China

Gelanceerd Sep 25, 2019 vanaf Jiuquan Satellite Launch Center

Loading…

Volgende Passages (komende 24 uur)

TLE

VersSource: Space-Track

Epoch: Sep 14, 2026, 11:07 UTC

1 44549U 19063C   26257.46328419  .00000295  00000-0  10673-3 0  9990
2 44549  98.3486 270.5976 0039199 218.7984 141.0388 14.39880582365559

Volg CZ-2D DEB in realtime met AllMySat

Download on the App Store